Howell, MI

1:15 AM EST on February 27, 2017 (GMT -0500)
Livingston County

Weather History for KOZW - July, 2013

Change the Weather History Date:

Thursday, July 18, 2013

  Actual Average Record
Temperature  
Mean Temperature 83 °F -  
Max Temperature 93 °F 81 °F 93 °F (2011)
Min Temperature 73 °F 59 °F 49 °F (2014)
Cooling Degree Days 18    
Growing Degree Days 33 (Base 50)    
Moisture  
Dew Point 72 °F    
Average Humidity 72    
Maximum Humidity 92    
Minimum Humidity 48    
Precipitation  
Precipitation 0.00 in - - ()
Sea Level Pressure  
Sea Level Pressure 30.10 in    
Wind  
Wind Speed 6 mph (WSW)    
Max Wind Speed 16 mph    
Max Gust Speed 22 mph    
Visibility 10 miles    
Events      
Averages and records for this station are not official NWS values.
T = Trace of Precipitation, MM = Missing Value Source: NWS Daily Summary

Daily Weather History Graph

Daily Weather History Graph

Search for Another Location

Airport or City:

Trip Planner

Search our weather history database for the weather conditions in past years. The results will help you decide how hot, cold, wet, or windy it might be!

Date:

Astronomy

Jul. 18, 2013 Rise Set
Actual Time 6:14 AM EDT 9:09 PM EDT
Civil Twilight 5:40 AM EDT 9:42 PM EDT
Nautical Twilight 4:58 AM EDT 10:25 PM EDT
Astronomical Twilight 4:08 AM EDT 11:14 PM EDT
Moon 5:04 PM EDT (7/18) 2:05 AM EDT (7/18)
Length of Visible Light 16h 01m
Length of Day
14h 55m
Waxing Gibbous, 77% of the Moon is Illuminated
Jul 18
Waxing Gibbous
Jul 22
Full
Jul 29
Last Quarter
Aug 6
New
Aug 14
First Quarter

Hourly Weather History & Observations

Time (EDT) Temp. Heat Index Dew Point Humidity Pressure Visibility Wind Dir Wind Speed Gust Speed Precip Events Conditions
12:15 AM 77.7 °F - 72.7 °F 84% 30.20 in 10.0 mi WSW 5.8 mph - N/A   Clear
12:34 AM 77.4 °F - 72.5 °F 85% 30.20 in 10.0 mi WSW 5.8 mph - N/A   Clear
12:55 AM 77.4 °F - 71.8 °F 83% 30.19 in 10.0 mi WSW 5.8 mph - N/A   Clear
1:14 AM 77.0 °F - 71.6 °F 83% 30.19 in 10.0 mi WSW 5.8 mph - N/A   Clear
1:35 AM 76.5 °F - 71.6 °F 85% 30.19 in 10.0 mi WSW 5.8 mph - N/A   Clear
1:55 AM 76.1 °F - 71.6 °F 86% 30.18 in 10.0 mi WSW 6.9 mph - N/A   Clear
2:15 AM 76.1 °F - 71.8 °F 86% 30.18 in 10.0 mi West 6.9 mph - N/A   Clear
2:35 AM 76.1 °F - 71.8 °F 86% 30.18 in 10.0 mi West 6.9 mph - N/A   Clear
2:54 AM 75.7 °F - 71.8 °F 87% 30.17 in 10.0 mi West 5.8 mph - N/A   Clear
3:15 AM 74.8 °F - 71.2 °F 88% 30.17 in 10.0 mi WSW 4.6 mph - N/A   Clear
3:34 AM 74.8 °F - 72.0 °F 91% 30.17 in 10.0 mi West 3.5 mph - N/A   Clear
3:55 AM 74.5 °F - 71.6 °F 91% 30.17 in 10.0 mi Calm Calm - N/A   Clear
4:14 AM 74.7 °F - 71.4 °F 90% 30.17 in 10.0 mi SSW 4.6 mph - N/A   Clear
4:35 AM 74.5 °F - 71.6 °F 91% 30.16 in 10.0 mi SSW 3.5 mph - N/A   Clear
4:55 AM 74.5 °F - 71.6 °F 91% 30.16 in 10.0 mi SW 3.5 mph - N/A   Clear
5:15 AM 74.3 °F - 71.2 °F 90% 30.16 in 10.0 mi Calm Calm - N/A   Clear
5:35 AM 74.3 °F - 71.6 °F 91% 30.16 in 10.0 mi Calm Calm - N/A   Clear
5:54 AM 73.9 °F - 71.1 °F 91% 30.15 in 10.0 mi Calm Calm - N/A   Clear
6:15 AM 74.3 °F - 71.2 °F 90% 30.16 in 10.0 mi WSW 3.5 mph - N/A   Clear
6:35 AM 73.6 °F - 71.1 °F 92% 30.16 in 10.0 mi WSW 3.5 mph - N/A   Clear
6:55 AM 74.3 °F - 71.8 °F 92% 30.16 in 7.0 mi WSW 3.5 mph - N/A   Clear
7:15 AM 75.6 °F - 72.3 °F 90% 30.16 in 10.0 mi WSW 4.6 mph - N/A   Clear
7:34 AM 76.6 °F - 72.5 °F 87% 30.16 in 10.0 mi WSW 4.6 mph - N/A   Clear
7:55 AM 77.7 °F - 72.9 °F 85% 30.16 in 10.0 mi WSW 5.8 mph - N/A   Clear
8:15 AM 79.2 °F - 72.9 °F 81% 30.16 in 10.0 mi West 6.9 mph - N/A   Clear
8:35 AM 79.9 °F - 73.6 °F 81% 30.16 in 10.0 mi WSW 6.9 mph - N/A   Clear
8:55 AM 80.6 °F 85.5 °F 73.8 °F 80% 30.15 in 10.0 mi WSW 4.6 mph - N/A   Clear
9:14 AM 82.4 °F 89.2 °F 74.8 °F 78% 30.15 in 10.0 mi WSW 4.6 mph - N/A   Clear
9:35 AM 83.5 °F 90.6 °F 74.5 °F 74% 30.15 in 10.0 mi West 4.6 mph - N/A   Clear
9:55 AM 84.9 °F 93.3 °F 74.8 °F 72% 30.15 in 10.0 mi WSW 5.8 mph - N/A   Clear
10:15 AM 86.2 °F 95.5 °F 75.2 °F 70% 30.15 in 10.0 mi West 4.6 mph - N/A   Clear
10:35 AM 86.9 °F 96.4 °F 75.0 °F 68% 30.15 in 10.0 mi SW 4.6 mph - N/A   Clear
10:54 AM 87.4 °F 95.8 °F 73.9 °F 64% 30.14 in 10.0 mi WSW 6.9 mph - N/A   Clear
11:15 AM 88.7 °F 97.2 °F 73.6 °F 61% 30.14 in 10.0 mi WSW 5.8 mph - N/A   Clear
11:35 AM 89.6 °F 98.2 °F 73.6 °F 59% 30.15 in 10.0 mi West 4.6 mph - N/A   Clear
11:54 AM 90.3 °F 99.3 °F 73.8 °F 58% 30.14 in 10.0 mi WSW 5.8 mph - N/A   Clear
12:15 PM 90.7 °F 99.0 °F 73.2 °F 56% 30.13 in 10.0 mi WNW 8.1 mph - N/A   Scattered Clouds
12:34 PM 90.0 °F 98.5 °F 73.6 °F 58% 30.13 in 10.0 mi SW 4.6 mph - N/A   Mostly Cloudy
12:55 PM 90.7 °F 99.0 °F 73.0 °F 56% 30.13 in 10.0 mi West 6.9 mph - N/A   Scattered Clouds
1:15 PM 91.6 °F 99.9 °F 72.7 °F 54% 30.12 in 10.0 mi WSW 8.1 mph - N/A   Clear
1:34 PM 91.6 °F 98.8 °F 71.6 °F 52% 30.10 in 10.0 mi West 10.4 mph - N/A   Scattered Clouds
1:55 PM 91.2 °F 99.1 °F 72.3 °F 54% 30.10 in 10.0 mi SW 9.2 mph - N/A   Scattered Clouds
2:14 PM 91.8 °F 99.1 °F 71.6 °F 52% 30.10 in 10.0 mi WSW 8.1 mph - N/A   Scattered Clouds
2:35 PM 93.2 °F 99.9 °F 70.9 °F 48% 30.10 in 10.0 mi WSW 10.4 mph - N/A   Scattered Clouds
2:55 PM 92.7 °F 99.4 °F 71.2 °F 49% 30.10 in 10.0 mi WSW 10.4 mph 18.4 mph N/A   Mostly Cloudy
3:14 PM 93.4 °F 100.3 °F 70.9 °F 48% 30.08 in 10.0 mi SW 10.4 mph 16.1 mph N/A   Mostly Cloudy
3:35 PM 92.1 °F 102.4 °F 74.5 °F 56% 30.06 in 10.0 mi WSW 15.0 mph - N/A   Scattered Clouds
3:54 PM 91.2 °F 99.7 °F 72.9 °F 55% 30.06 in 10.0 mi SW 15.0 mph - N/A   Clear
4:15 PM 88.9 °F 94.7 °F 70.9 °F 55% 30.07 in 10.0 mi SW 16.1 mph 21.9 mph N/A   Clear
4:35 PM 84.2 °F 87.6 °F 68.5 °F 59% 30.06 in 10.0 mi WSW 8.1 mph - N/A   Clear
4:54 PM 87.4 °F 92.7 °F 70.7 °F 57% 30.05 in 10.0 mi WSW 8.1 mph - N/A   Clear
5:15 PM 88.3 °F 94.1 °F 71.1 °F 56% 30.05 in 10.0 mi West 11.5 mph - N/A   Clear
5:34 PM 87.8 °F 93.4 °F 70.9 °F 57% 30.03 in 10.0 mi WSW 10.4 mph - N/A   Clear
5:55 PM 88.7 °F 94.3 °F 70.9 °F 55% 30.03 in 10.0 mi WSW 8.1 mph - N/A   Clear
6:14 PM 88.9 °F 94.2 °F 70.5 °F 54% 30.02 in 10.0 mi WSW 8.1 mph - N/A   Clear
6:34 PM 88.7 °F 94.3 °F 70.9 °F 55% 30.01 in 10.0 mi SW 6.9 mph - N/A   Clear
6:55 PM 88.2 °F 94.1 °F 71.2 °F 57% 30.02 in 10.0 mi SW 6.9 mph - N/A   Clear
7:14 PM 87.3 °F 93.6 °F 71.8 °F 60% 30.01 in 10.0 mi SSW 10.4 mph - N/A   Clear
7:35 PM 86.9 °F 93.7 °F 72.3 °F 62% 30.00 in 10.0 mi SW 6.9 mph - N/A   Clear
7:54 PM 86.2 °F 93.0 °F 72.5 °F 64% 30.00 in 10.0 mi SW 4.6 mph - N/A   Clear
8:15 PM 85.3 °F 91.5 °F 72.5 °F 65% 30.00 in 10.0 mi SSW 8.1 mph - N/A   Clear
8:35 PM 84.7 °F 91.0 °F 72.9 °F 67% 29.99 in 10.0 mi SSW 5.8 mph - N/A   Clear
8:54 PM 84.0 °F 90.2 °F 73.0 °F 69% 29.99 in 10.0 mi SSW 5.8 mph - N/A   Clear
9:15 PM 83.1 °F 89.2 °F 73.2 °F 72% 29.99 in 10.0 mi SSW 4.6 mph - N/A   Clear
9:34 PM 82.4 °F 88.2 °F 73.4 °F 74% 29.98 in 10.0 mi South 3.5 mph - N/A   Clear
9:55 PM 81.7 °F 87.3 °F 73.8 °F 77% 29.99 in 10.0 mi SSW 4.6 mph - N/A   Clear
10:15 PM 81.5 °F 86.9 °F 73.8 °F 77% 29.99 in 10.0 mi SSW 5.8 mph - N/A   Clear
10:34 PM 81.0 °F 86.2 °F 73.8 °F 79% 29.99 in 10.0 mi SSW 5.8 mph - N/A   Clear
10:55 PM 80.6 °F 85.4 °F 73.4 °F 79% 30.00 in 10.0 mi SSW 4.6 mph - N/A   Clear
11:15 PM 80.2 °F 84.5 °F 72.9 °F 78% 30.00 in 10.0 mi SSW 5.8 mph - N/A   Clear
11:34 PM 80.2 °F 84.3 °F 72.5 °F 77% 29.99 in 10.0 mi SSW 5.8 mph - N/A   Clear
11:55 PM 80.6 °F 84.9 °F 72.5 °F 76% 29.99 in 10.0 mi SW 6.9 mph - N/A   Clear